This is the latest recevied weather packets stored in our database for station/object DL1DH-17. If no packets are shown the sender has not sent any weather packets the latest 10 day(s).
| Time | Temp. | Humidity | Pressure | Rain* | Wind** | Luminosity | Snow |
|---|---|---|---|---|---|---|---|
| 1777666920 | 13.89° C | 41% | 985.3 hPa | - | - | - | - |
| 1777666080 | 13.89° C | 40% | 985.3 hPa | - | - | - | - |
| 1777665240 | 13.89° C | 40% | 985.2 hPa | - | - | - | - |
| 1777664399 | 14.44° C | 39% | 985.2 hPa | - | - | - | - |
| 1777663559 | 14.44° C | 39% | 985.2 hPa | - | - | - | - |
| 1777662719 | 14.44° C | 39% | 985.2 hPa | - | - | - | - |
| 1777661879 | 15° C | 38% | 985.1 hPa | - | - | - | - |
| 1777661039 | 15° C | 38% | 985 hPa | - | - | - | - |
| 1777660199 | 15.56° C | 36% | 985 hPa | - | - | - | - |
| 1777659359 | 16.11° C | 35% | 984.9 hPa | - | - | - | - |
| 1777658520 | 16.67° C | 35% | 984.8 hPa | - | - | - | - |
| 1777657679 | 16.67° C | 34% | 984.8 hPa | - | - | - | - |
| 1777656839 | 17.22° C | 34% | 984.8 hPa | - | - | - | - |
| 1777655998 | 17.78° C | 33% | 984.9 hPa | - | - | - | - |
| 1777655158 | 17.78° C | 32% | 984.9 hPa | - | - | - | - |
| 1777654318 | 18.33° C | 32% | 984.9 hPa | - | - | - | - |
| 1777653478 | 18.33° C | 32% | 985.1 hPa | - | - | - | - |
| 1777652638 | 18.33° C | 31% | 985.2 hPa | - | - | - | - |
| 1777651798 | 18.33° C | 31% | 985.3 hPa | - | - | - | - |
| 1777650958 | 18.89° C | 31% | 985.3 hPa | - | - | - | - |
| 1777650118 | 18.33° C | 32% | 985.4 hPa | - | - | - | - |
| 1777649278 | 18.33° C | 32% | 985.5 hPa | - | - | - | - |
| 1777648438 | 18.33° C | 31% | 985.6 hPa | - | - | - | - |
| 1777647598 | 18.33° C | 32% | 985.8 hPa | - | - | - | - |
| 1777646758 | 18.33° C | 33% | 985.9 hPa | - | - | - | - |
* Rain since midnight (hover to see other rain measurements)
** Current wind speed in m/s (hover to see current wind gust speed)